Time,TemperatureF,DewpointF,PressureIn,WindDirection,WindDirectionDegrees,WindSpeedMPH,WindSpeedGustMPH,Humidity,HourlyPrecipIn,Conditions,Clouds,dailyrainin,SoftwareType,DateUTC
2013-01-19 00:02:00,14.0,7.0,-100.00,ESE,110,6.0,10.0,71,0.00,,,-99.99,,2013-01-19 07:02:00,
2013-01-19 00:11:00,13.0,6.0,-100.00,ENE,70,0.0,9.0,71,0.00,,,-99.99,,2013-01-19 07:11:00,
2013-01-19 00:22:00,13.0,6.0,-100.00,ENE,70,0.0,9.0,71,0.00,,,-99.99,,2013-01-19 07:22:00,
2013-01-19 00:32:00,14.0,7.0,-100.00,SE,145,7.0,10.0,71,0.00,,,-99.99,,2013-01-19 07:32:00,
2013-01-19 00:42:00,13.0,6.0,-100.00,ESE,115,4.0,9.0,71,0.00,,,-99.99,,2013-01-19 07:42:00,
2013-01-19 00:52:00,13.0,5.0,-100.00,NE,40,0.0,3.0,71,0.00,,,-99.99,,2013-01-19 07:52:00,
2013-01-19 01:02:00,13.0,5.0,-100.00,SE,135,6.0,9.0,71,0.00,,,-99.99,,2013-01-19 08:02:00,
2013-01-19 01:11:00,13.0,6.0,-100.00,ESE,110,6.0,10.0,71,0.00,,,-99.99,,2013-01-19 08:11:00,
2013-01-19 01:22:00,13.0,5.0,-100.00,ESE,115,3.0,5.0,71,0.00,,,-99.99,,2013-01-19 08:22:00,
2013-01-19 01:32:00,12.0,5.0,-100.00,SSE,150,4.0,9.0,71,0.00,,,-99.99,,2013-01-19 08:32:00,
2013-01-19 01:42:00,13.0,5.0,-100.00,SE,130,5.0,9.0,71,0.00,,,-99.99,,2013-01-19 08:42:00,
2013-01-19 01:52:00,12.0,5.0,-100.00,SE,135,1.0,11.0,71,0.00,,,-99.99,,2013-01-19 08:52:00,
2013-01-19 02:02:00,11.0,3.0,-100.00,North,0,0.0,5.0,71,0.00,,,-99.99,,2013-01-19 09:02:00,
2013-01-19 02:12:00,11.0,3.0,-100.00,ESE,110,4.0,8.0,71,0.00,,,-99.99,,2013-01-19 09:12:00,
2013-01-19 02:22:00,10.0,3.0,-100.00,SW,235,0.0,6.0,71,0.00,,,-99.99,,2013-01-19 09:22:00,
2013-01-19 02:32:00,11.0,4.0,-100.00,ESE,115,2.0,6.0,72,0.00,,,-99.99,,2013-01-19 09:32:00,
2013-01-19 02:42:00,11.0,4.0,-100.00,SE,130,6.0,10.0,73,0.00,,,-99.99,,2013-01-19 09:42:00,
2013-01-19 02:52:00,11.0,4.0,-100.00,SE,140,9.0,11.0,73,0.00,,,-99.99,,2013-01-19 09:52:00,
2013-01-19 03:02:00,12.0,6.0,-100.00,SE,140,2.0,14.0,73,0.00,,,-99.99,,2013-01-19 10:02:00,
2013-01-19 03:12:00,12.0,5.0,-100.00,ESE,115,4.0,11.0,73,0.00,,,-99.99,,2013-01-19 10:12:00,
2013-01-19 03:22:00,11.0,4.0,-100.00,East,95,0.0,5.0,72,0.00,,,-99.99,,2013-01-19 10:22:00,
2013-01-19 03:32:00,10.0,3.0,-100.00,ESE,110,4.0,7.0,72,0.00,,,-99.99,,2013-01-19 10:32:00,
2013-01-19 03:42:00,11.0,4.0,-100.00,ESE,110,2.0,9.0,72,0.00,,,-99.99,,2013-01-19 10:42:00,
2013-01-19 03:52:00,10.0,3.0,-100.00,SE,135,6.0,7.0,72,0.00,,,-99.99,,2013-01-19 10:52:00,
2013-01-19 04:02:00,10.0,3.0,-100.00,ENE,75,2.0,7.0,72,0.00,,,-99.99,,2013-01-19 11:02:00,
2013-01-19 04:12:00,10.0,2.0,-100.00,SW,215,1.0,6.0,72,0.00,,,-99.99,,2013-01-19 11:12:00,
2013-01-19 05:52:00,7.0,1.0,-100.00,ESE,105,2.0,7.0,75,0.00,,,-99.99,,2013-01-19 12:52:00,
2013-01-19 06:02:00,7.0,1.0,-100.00,ENE,75,1.0,7.0,75,0.00,,,-99.99,,2013-01-19 13:02:00,
2013-01-19 06:12:00,6.0,0.0,-100.00,East,85,1.0,2.0,75,0.00,,,-99.99,,2013-01-19 13:12:00,
2013-01-19 06:22:00,6.0,0.0,-100.00,East,95,1.0,4.0,75,0.00,,,-99.99,,2013-01-19 13:22:00,
2013-01-19 06:33:00,6.0,0.0,-100.00,SE,125,1.0,3.0,75,0.00,,,-99.99,,2013-01-19 13:33:00,
2013-01-19 06:42:00,6.0,0.0,-100.00,WNW,295,0.0,1.0,76,0.00,,,-99.99,,2013-01-19 13:42:00,
2013-01-19 06:52:00,5.0,-1.0,-100.00,ESE,115,0.0,2.0,75,0.00,,,-99.99,,2013-01-19 13:52:00,
2013-01-19 07:02:00,4.0,-1.0,-100.00,NNE,15,2.0,4.0,76,0.00,,,-99.99,,2013-01-19 14:02:00,
2013-01-19 07:12:00,4.0,-1.0,-100.00,ENE,60,0.0,3.0,76,0.00,,,-99.99,,2013-01-19 14:12:00,
2013-01-19 07:22:00,4.0,-1.0,-100.00,East,95,1.0,4.0,77,0.00,,,-99.99,,2013-01-19 14:22:00,
2013-01-19 07:33:00,5.0,-1.0,-100.00,NNE,20,0.0,0.0,77,0.00,,,-99.99,,2013-01-19 14:33:00,
2013-01-19 07:42:00,4.0,-2.0,-100.00,North,0,0.0,2.0,77,0.00,,,-99.99,,2013-01-19 14:42:00,
2013-01-19 07:52:00,4.0,-1.0,-100.00,WNW,295,0.0,0.0,77,0.00,,,-99.99,,2013-01-19 14:52:00,
2013-01-19 08:02:00,4.0,-1.0,-100.00,NNE,25,0.0,2.0,78,0.00,,,-99.99,,2013-01-19 15:02:00,
2013-01-19 08:12:00,4.0,-1.0,-100.00,NNE,15,0.0,4.0,78,0.00,,,-99.99,,2013-01-19 15:12:00,
2013-01-19 08:22:00,5.0,0.0,-100.00,North,5,2.0,2.0,78,0.00,,,-99.99,,2013-01-19 15:22:00,
2013-01-19 08:33:00,7.0,2.0,-100.00,South,185,1.0,4.0,78,0.00,,,-99.99,,2013-01-19 15:33:00,
2013-01-19 08:42:00,9.0,4.0,-100.00,East,100,4.0,6.0,78,0.00,,,-99.99,,2013-01-19 15:42:00,
2013-01-19 08:52:00,11.0,6.0,-100.00,ESE,115,6.0,8.0,78,0.00,,,-99.99,,2013-01-19 15:52:00,
2013-01-19 09:02:00,12.0,6.0,-100.00,NNE,15,1.0,6.0,78,0.00,,,-99.99,,2013-01-19 16:02:00,
2013-01-19 09:12:00,13.0,7.0,-100.00,NE,35,2.0,6.0,76,0.00,,,-99.99,,2013-01-19 16:12:00,
2013-01-19 09:22:00,16.0,9.0,-100.00,ESE,115,4.0,7.0,75,0.00,,,-99.99,,2013-01-19 16:22:00,
2013-01-19 09:32:00,17.0,10.0,-100.00,NNE,25,1.0,6.0,73,0.00,,,-99.99,,2013-01-19 16:32:00,
2013-01-19 09:42:00,18.0,10.0,-100.00,North,350,0.0,7.0,70,0.00,,,-99.99,,2013-01-19 16:42:00,
2013-01-19 09:53:00,19.0,11.0,-100.00,SSE,150,0.0,1.0,68,0.00,,,-99.99,,2013-01-19 16:53:00,
2013-01-19 10:02:00,20.0,11.0,-100.00,WNW,285,0.0,2.0,65,0.00,,,-99.99,,2013-01-19 17:02:00,
2013-01-19 10:13:00,23.0,12.0,-100.00,WNW,290,0.0,2.0,62,0.00,,,-99.99,,2013-01-19 17:13:00,
2013-01-19 10:23:00,23.0,10.0,-100.00,NNW,340,0.0,2.0,58,0.00,,,-99.99,,2013-01-19 17:23:00,
2013-01-19 10:33:00,23.0,9.0,-100.00,North,0,2.0,4.0,55,0.00,,,-99.99,,2013-01-19 17:33:00,
2013-01-19 10:43:00,25.0,11.0,-100.00,West,260,0.0,2.0,54,0.00,,,-99.99,,2013-01-19 17:43:00,
2013-01-19 10:53:00,27.0,11.0,-100.00,North,0,0.0,2.0,51,0.00,,,-99.99,,2013-01-19 17:53:00,
2013-01-19 11:04:00,26.0,10.0,-100.00,NE,50,2.0,6.0,48,0.00,,,-99.99,,2013-01-19 18:04:00,
2013-01-19 11:23:00,29.0,12.0,-100.00,ENE,70,0.0,2.0,46,0.00,,,-99.99,,2013-01-19 18:23:00,
2013-01-19 11:33:00,31.0,12.0,-100.00,SW,215,0.0,1.0,45,0.00,,,-99.99,,2013-01-19 18:33:00,
2013-01-19 11:43:00,32.0,12.0,-100.00,NE,50,0.0,0.0,43,0.00,,,-99.99,,2013-01-19 18:43:00,
2013-01-19 11:53:00,34.0,13.0,-100.00,ESE,120,0.0,1.0,41,0.00,,,-99.99,,2013-01-19 18:53:00,
2013-01-19 12:04:00,33.0,11.0,-100.00,NE,40,0.0,2.0,39,0.00,,,-99.99,,2013-01-19 19:04:00,
2013-01-19 12:12:00,34.0,11.0,-100.00,East,100,0.0,0.0,38,0.00,,,-99.99,,2013-01-19 19:12:00,
2013-01-19 12:22:00,34.0,11.0,-100.00,North,0,0.0,0.0,37,0.00,,,-99.99,,2013-01-19 19:22:00,
2013-01-19 12:34:00,34.0,11.0,-100.00,NNE,25,0.0,0.0,37,0.00,,,-99.99,,2013-01-19 19:34:00,
2013-01-19 12:43:00,35.0,11.0,-100.00,NNE,15,0.0,2.0,36,0.00,,,-99.99,,2013-01-19 19:43:00,
2013-01-19 12:53:00,37.0,13.0,-100.00,WSW,250,0.0,1.0,36,0.00,,,-99.99,,2013-01-19 19:53:00,
2013-01-19 13:12:00,37.0,12.0,-100.00,WSW,240,0.0,0.0,35,0.00,,,-99.99,,2013-01-19 20:12:00,
2013-01-19 13:22:00,38.0,13.0,-100.00,WSW,250,0.0,2.0,35,0.00,,,-99.99,,2013-01-19 20:22:00,
2013-01-19 13:34:00,38.0,12.0,-100.00,East,95,0.0,1.0,34,0.00,,,-99.99,,2013-01-19 20:34:00,
2013-01-19 13:43:00,38.0,12.0,-100.00,West,280,0.0,1.0,33,0.00,,,-99.99,,2013-01-19 20:43:00,
2013-01-19 13:53:00,37.0,11.0,-100.00,WNW,285,1.0,4.0,33,0.00,,,-99.99,,2013-01-19 20:53:00,
2013-01-19 14:03:00,37.0,11.0,-100.00,West,265,1.0,5.0,33,0.00,,,-99.99,,2013-01-19 21:03:00,
2013-01-19 14:13:00,39.0,13.0,-100.00,WSW,240,0.0,6.0,33,0.00,,,-99.99,,2013-01-19 21:13:00,
2013-01-19 14:22:00,40.0,13.0,-100.00,SSW,210,0.0,4.0,33,0.00,,,-99.99,,2013-01-19 21:22:00,
2013-01-19 14:34:00,41.0,14.0,-100.00,South,185,0.0,2.0,32,0.00,,,-99.99,,2013-01-19 21:34:00,
2013-01-19 15:04:00,41.0,12.0,-100.00,NNE,20,1.0,2.0,30,0.00,,,-99.99,,2013-01-19 22:04:00,
2013-01-19 15:12:00,41.0,13.0,-100.00,SSW,210,0.0,0.0,31,0.00,,,-99.99,,2013-01-19 22:12:00,
2013-01-19 15:23:00,40.0,13.0,-100.00,SW,230,0.0,0.0,31,0.00,,,-99.99,,2013-01-19 22:23:00,
2013-01-19 15:33:00,39.0,11.0,-100.00,North,5,0.0,1.0,31,0.00,,,-99.99,,2013-01-19 22:33:00,
2013-01-19 15:44:00,38.0,11.0,-100.00,NNW,335,4.0,5.0,32,0.00,,,-99.99,,2013-01-19 22:44:00,
2013-01-19 15:53:00,38.0,11.0,-100.00,NNE,25,0.0,3.0,32,0.00,,,-99.99,,2013-01-19 22:53:00,
2013-01-19 16:04:00,38.0,11.0,-100.00,North,0,0.0,1.0,32,0.00,,,-99.99,,2013-01-19 23:04:00,
2013-01-19 16:12:00,36.0,10.0,-100.00,SE,140,5.0,6.0,33,0.00,,,-99.99,,2013-01-19 23:12:00,
2013-01-19 16:23:00,33.0,9.0,-100.00,SE,145,0.0,6.0,35,0.00,,,-99.99,,2013-01-19 23:23:00,
2013-01-19 16:33:00,32.0,9.0,-100.00,SE,145,1.0,6.0,37,0.00,,,-99.99,,2013-01-19 23:33:00,
2013-01-19 16:54:00,28.0,9.0,-100.00,SE,140,4.0,6.0,43,0.00,,,-99.99,,2013-01-19 23:54:00,
2013-01-19 17:13:00,27.0,10.0,-100.00,SE,140,4.0,7.0,48,0.00,,,-99.99,,2013-01-20 00:13:00,
2013-01-19 17:23:00,26.0,10.0,-100.00,SE,130,3.0,6.0,50,0.00,,,-99.99,,2013-01-20 00:23:00,
2013-01-19 17:33:00,27.0,11.0,-100.00,SE,125,4.0,6.0,51,0.00,,,-99.99,,2013-01-20 00:33:00,
2013-01-19 17:44:00,24.0,9.0,-100.00,SW,220,0.0,0.0,51,0.00,,,-99.99,,2013-01-20 00:44:00,
2013-01-19 17:53:00,24.0,9.0,-100.00,SE,125,0.0,2.0,52,0.00,,,-99.99,,2013-01-20 00:53:00,
2013-01-19 18:03:00,24.0,9.0,-100.00,ESE,120,0.0,1.0,53,0.00,,,-99.99,,2013-01-20 01:03:00,
2013-01-19 18:22:00,22.0,9.0,-100.00,SSW,205,0.0,0.0,55,0.00,,,-99.99,,2013-01-20 01:22:00,
2013-01-19 18:33:00,22.0,9.0,-100.00,ESE,120,0.0,4.0,56,0.00,,,-99.99,,2013-01-20 01:33:00,
2013-01-19 18:43:00,22.0,9.0,-100.00,ESE,105,0.0,2.0,57,0.00,,,-99.99,,2013-01-20 01:43:00,
2013-01-19 18:53:00,23.0,10.0,-100.00,ESE,120,1.0,7.0,58,0.00,,,-99.99,,2013-01-20 01:53:00,
2013-01-19 19:03:00,24.0,12.0,-100.00,East,100,3.0,10.0,58,0.00,,,-99.99,,2013-01-20 02:03:00,
2013-01-19 19:12:00,24.0,11.0,-100.00,SE,130,7.0,12.0,58,0.00,,,-99.99,,2013-01-20 02:12:00,
2013-01-19 19:23:00,24.0,11.0,-100.00,SE,130,4.0,10.0,56,0.00,,,-99.99,,2013-01-20 02:23:00,
2013-01-19 19:34:00,22.0,9.0,-100.00,SE,145,0.0,5.0,56,0.00,,,-99.99,,2013-01-20 02:34:00,
2013-01-19 19:43:00,21.0,8.0,-100.00,East,85,2.0,2.0,56,0.00,,,-99.99,,2013-01-20 02:43:00,
2013-01-19 20:04:00,20.0,8.0,-100.00,NNW,335,0.0,5.0,57,0.00,,,-99.99,,2013-01-20 03:04:00,
2013-01-19 20:13:00,19.0,7.0,-100.00,NNW,330,0.0,1.0,58,0.00,,,-99.99,,2013-01-20 03:13:00,
2013-01-19 20:22:00,19.0,7.0,-100.00,NNW,335,0.0,0.0,58,0.00,,,-99.99,,2013-01-20 03:22:00,
2013-01-19 20:33:00,18.0,6.0,-100.00,NNE,25,0.0,0.0,59,0.00,,,-99.99,,2013-01-20 03:33:00,
2013-01-19 20:43:00,17.0,6.0,-100.00,WNW,300,0.0,0.0,60,0.00,,,-99.99,,2013-01-20 03:43:00,
2013-01-19 20:52:00,17.0,6.0,-100.00,SSE,150,0.0,2.0,61,0.00,,,-99.99,,2013-01-20 03:52:00,
2013-01-19 21:03:00,18.0,7.0,-100.00,ESE,120,0.0,6.0,61,0.00,,,-99.99,,2013-01-20 04:03:00,
2013-01-19 21:12:00,17.0,6.0,-100.00,NNW,335,0.0,2.0,62,0.00,,,-99.99,,2013-01-20 04:12:00,
2013-01-19 21:22:00,17.0,6.0,-100.00,East,90,0.0,0.0,62,0.00,,,-99.99,,2013-01-20 04:22:00,
2013-01-19 21:33:00,17.0,6.0,-100.00,ESE,115,0.0,0.0,63,0.00,,,-99.99,,2013-01-20 04:33:00,
2013-01-19 21:42:00,16.0,6.0,-100.00,South,180,0.0,2.0,63,0.00,,,-99.99,,2013-01-20 04:42:00,
2013-01-19 22:02:00,16.0,6.0,-100.00,SE,135,0.0,2.0,64,0.00,,,-99.99,,2013-01-20 05:02:00,
2013-01-19 22:12:00,16.0,6.0,-100.00,SSW,205,0.0,2.0,65,0.00,,,-99.99,,2013-01-20 05:12:00,
2013-01-19 22:22:00,15.0,5.0,-100.00,NNE,20,0.0,0.0,65,0.00,,,-99.99,,2013-01-20 05:22:00,
2013-01-19 22:32:00,14.0,5.0,-100.00,West,260,0.0,2.0,65,0.00,,,-99.99,,2013-01-20 05:32:00,
2013-01-19 22:42:00,14.0,5.0,-100.00,NE,45,1.0,2.0,66,0.00,,,-99.99,,2013-01-20 05:42:00,
2013-01-19 22:52:00,14.0,5.0,-100.00,ESE,115,1.0,3.0,66,0.00,,,-99.99,,2013-01-20 05:52:00,
2013-01-19 23:02:00,13.0,4.0,-100.00,SE,130,0.0,4.0,67,0.00,,,-99.99,,2013-01-20 06:02:00,
2013-01-19 23:11:00,14.0,6.0,-100.00,SE,125,2.0,4.0,68,0.00,,,-99.99,,2013-01-20 06:11:00,
2013-01-19 23:22:00,14.0,6.0,-100.00,ESE,105,2.0,4.0,68,0.00,,,-99.99,,2013-01-20 06:22:00,
2013-01-19 23:32:00,14.0,5.0,-100.00,East,80,2.0,3.0,68,0.00,,,-99.99,,2013-01-20 06:32:00,
2013-01-19 23:42:00,14.0,5.0,-100.00,South,180,0.0,7.0,68,0.00,,,-99.99,,2013-01-20 06:42:00,
2013-01-19 23:52:00,12.0,4.0,-100.00,South,185,1.0,3.0,68,0.00,,,-99.99,,2013-01-20 06:52:00,